This demonstration page uses our WeatherBlox Daily Observations layout. Learn more.

Left ArrowRight Arrow

Hourly Observations for August 8, 2017

Temp ( °F °C ) Dew Point ( °F °C ) Humidity (%) Winds ( mph kmh ) Pressure ( in mb ) Visibility ( mi km ) Precip ( " mm )
12:15 am 00:15 Clear 62 16.5 59 15 91 91 N 8 13 30.09 1019 10 16 0.00 0.00
12:35 am 00:35 Clear 61 16.1 58 14.7 91 91 NNW 8 13 30.09 1019 10 16 0.00 0.00
12:55 am 00:55 Clear 61 16.1 58 14.6 91 91 N 8 13 30.09 1019 10 16 0.00 0.00
1:15 am 01:15 Clear 60 15.6 58 14.5 93 93 N 7 11 30.09 1019 10 16 0.00 0.00
1:35 am 01:35 Clear 60 15.3 58 14.2 93 93 N 7 11 30.09 1019 10 16 0.00 0.00
1:55 am 01:55 Clear 59 15 57 13.8 93 93 N 7 11 30.09 1019 10 16 0.00 0.00
2:15 am 02:15 Clear 58 14.3 56 13.3 94 94 N 3 6 30.09 1019 10 16 0.00 0.00
2:35 am 02:35 Clear 57 13.9 55 13 94 94 N 5 7 30.09 1019 10 16 0.00 0.00
2:55 am 02:55 Clear 56 13.5 55 12.8 96 96 N 3 6 30.09 1019 10 16 0.00 0.00
3:15 am 03:15 Clear 56 13.3 55 12.6 96 96 N 5 7 30.12 1020 10 16 0.00 0.00
3:35 am 03:35 Clear 56 13.3 55 12.5 95 95 N 5 7 30.12 1020 10 16 0.00 0.00
3:55 am 03:55 Clear 55 13 54 12.2 95 95 N 3 6 30.12 1020 10 16 0.00 0.00
4:15 am 04:15 Clear 55 12.8 54 12.1 96 96 N 5 7 30.12 1020 10 16 0.00 0.00
4:35 am 04:35 Clear 55 12.5 53 11.9 96 96 N 3 6 30.12 1020 10 16 0.00 0.00
4:55 am 04:55 Clear 55 12.5 53 11.8 96 96 N 5 7 30.12 1020 10 16 0.00 0.00
5:15 am 05:15 Clear 54 12 53 11.5 97 97 N 3 6 30.12 1020 10 16 0.00 0.00
5:35 am 05:35 Clear 54 12 53 11.5 97 97 N 3 6 30.15 1021 10 16 0.00 0.00
5:55 am 05:55 Clear 54 12.1 53 11.6 97 97 N 5 7 30.15 1021 10 16 0.00 0.00
6:15 am 06:15 Clear 53 11.9 53 11.4 97 97 N 5 7 30.15 1021 10 16 0.00 0.00
6:35 am 06:35 Clear 53 11.6 52 11.2 97 97 N 3 6 30.15 1021 10 16 0.00 0.00
6:55 am 06:55 Sunny 53 11.4 52 11 97 97 NNE 3 6 30.15 1021 10 16 0.00 0.00
7:15 am 07:15 Sunny 53 11.5 52 11.1 97 97 N 3 6 30.15 1021 10 16 0.00 0.00
7:35 am 07:35 Sunny 54 12 53 11.6 97 97 N 3 6 30.15 1021 10 16 0.00 0.00
7:55 am 07:55 Sunny 56 13.2 54 12.4 95 95 NNE 6 9 30.18 1022 10 16 0.00 0.00
8:15 am 08:15 Sunny 57 14.1 55 13 93 93 NNE 6 9 30.15 1021 10 16 0.00 0.00
8:35 am 08:35 Sunny 59 15.1 56 13.2 89 89 NNE 5 7 30.15 1021 10 16 0.00 0.00
8:55 am 08:55 Sunny 61 16.2 57 13.7 85 85 NE 3 6 30.15 1021 10 16 0.00 0.00
9:15 am 09:15 Sunny 63 17.1 56 13.5 80 80 NE 5 7 30.15 1021 10 16 0.00 0.00
9:35 am 09:35 Sunny 64 17.8 55 12.9 73 73 NE 6 9 30.18 1022 10 16 0.00 0.00
9:55 am 09:55 Sunny 66 18.8 56 13.1 70 70 NE 3 6 30.18 1022 10 16 0.00 0.00
10:15 am 10:15 Sunny 67 19.3 54 12.2 64 64 ENE 5 7 30.18 1022 10 16 0.00 0.00
10:35 am 10:35 Sunny 68 20.1 55 12.5 62 62 ENE 5 7 30.18 1022 10 16 0.00 0.00
10:55 am 10:55 Sunny 69 20.8 53 11.9 57 57 E 6 9 30.18 1022 10 16 0.00 0.00
11:15 am 11:15 Sunny 71 21.5 54 12 55 55 E 7 11 30.18 1022 10 16 0.00 0.00
11:35 am 11:35 Sunny 71 21.8 51 10.7 49 49 ENE 7 11 30.18 1022 10 16 0.00 0.00
11:55 am 11:55 Sunny 72 22.2 51 10.7 48 48 ENE 7 11 30.18 1022 10 16 0.00 0.00
12:15 pm 12:15 Sunny 73 22.5 50 9.8 45 45 ENE 6 9 30.18 1022 10 16 0.00 0.00
12:35 pm 12:35 Sunny 73 22.5 52 11.1 49 49 E 7 11 30.18 1022 10 16 0.00 0.00
12:55 pm 12:55 Sunny 74 23.1 52 10.9 46 46 ENE 7 11 30.15 1021 10 16 0.00 0.00
1:15 pm 13:15 Sunny 73 22.7 53 11.4 49 49 NE 8 13 30.18 1022 10 16 0.00 0.00
1:35 pm 13:35 Sunny 74 23.4 53 11.4 47 47 ENE 5 7 30.15 1021 10 16 0.00 0.00
1:55 pm 13:55 Sunny 74 23.3 53 11.9 49 49 ENE 5 7 30.15 1021 10 16 0.00 0.00
2:15 pm 14:15 Sunny 75 23.7 55 13 51 51 ENE 6 9 30.15 1021 10 16 0.00 0.00
2:35 pm 14:35 Sunny 75 23.7 53 11.9 48 48 E 5 7 30.12 1020 10 16 0.00 0.00
2:55 pm 14:55 Sunny 75 24 54 12.4 48 48 NE 9 15 30.12 1020 10 16 0.00 0.00
3:15 pm 15:15 Sunny 75 24.1 55 13 50 50 N 7 11 30.12 1020 10 16 0.00 0.00
3:35 pm 15:35 Sunny 76 24.5 56 13.2 49 49 NNE 5 7 30.12 1020 10 16 0.00 0.00
3:55 pm 15:55 Sunny 76 24.5 56 13.1 49 49 N 5 7 30.12 1020 10 16 0.00 0.00
4:15 pm 16:15 Sunny 76 24.4 56 13.4 50 50 NE 8 13 30.12 1020 10 16 0.00 0.00
4:35 pm 16:35 Sunny 75 24.1 55 12.9 50 50 NE 5 7 30.12 1020 10 16 0.00 0.00
4:55 pm 16:55 Sunny 76 24.3 56 13.3 50 50 N 7 11 30.12 1020 10 16 0.00 0.00
5:15 pm 17:15 Sunny 76 24.3 56 13.1 50 50 N 7 11 30.12 1020 10 16 0.00 0.00
5:35 pm 17:35 Sunny 76 24.3 55 12.6 48 48 NNE 7 11 30.09 1019 10 16 0.00 0.00
5:55 pm 17:55 Sunny 75 24 55 12.6 49 49 NNE 7 11 30.09 1019 10 16 0.00 0.00
6:15 pm 18:15 Sunny 75 23.9 55 12.8 50 50 NNE 6 9 30.09 1019 10 16 0.00 0.00
6:35 pm 18:35 Sunny 75 23.9 56 13.4 52 52 NNE 6 9 30.09 1019 10 16 0.00 0.00
6:55 pm 18:55 Sunny 75 23.7 55 12.6 50 50 NE 7 11 30.09 1019 10 16 0.00 0.00
7:15 pm 19:15 Sunny 74 23.5 56 13.5 54 54 NE 3 6 30.09 1019 10 16 0.00 0.00
7:35 pm 19:35 Sunny 72 22.4 58 14.7 62 62 NNE 3 6 30.09 1019 10 16 0.00 0.00
7:55 pm 19:55 Sunny 72 22 60 15.5 67 67 NE 3 6 30.12 1020 10 16 0.00 0.00
8:15 pm 20:15 Sunny 70 21 60 15.5 71 71 Calm 30.15 1021 10 16 0.00 0.00
8:35 pm 20:35 Sunny 68 20 60 15.8 77 77 Calm 30.15 1021 10 16 0.00 0.00
8:55 pm 20:55 Clear 66 18.7 59 15.2 80 80 Calm 30.15 1021 10 16 0.00 0.00
9:15 pm 21:15 Clear 63 17.4 59 15 86 86 Calm 30.15 1021 10 16 0.00 0.00
9:35 pm 21:35 Clear 61 16.3 59 15 92 92 Calm 30.15 1021 10 16 0.00 0.00
9:55 pm 21:55 Clear 63 17.1 58 14.7 86 86 Calm 30.15 1021 10 16 0.00 0.00
10:15 pm 22:15 Clear 62 16.7 58 14.7 88 88 Calm 30.15 1021 10 16 0.00 0.00
10:35 pm 22:35 Clear 60 15.8 58 14.5 92 92 Calm 30.15 1021 10 16 0.00 0.00
10:55 pm 22:55 Clear 59 15.2 58 14.3 94 94 Calm 30.15 1021 10 16 0.00 0.00
11:15 pm 23:15 Clear 60 15.4 58 14.2 93 93 Calm 30.18 1022 10 16 0.00 0.00
11:35 pm 23:35 Clear 58 14.4 56 13.5 94 94 Calm 30.15 1021 10 16 0.00 0.00
11:55 pm 23:55 Clear 58 14.3 56 13.6 96 96 Calm 30.15 1021 10 16 0.00 0.00

Powered by AerisWeather